Rolla, ND

7:14 PM CDT on March 23, 2017 (GMT -0500)
Rolla

Weather History for K06D - October, 2011

Change the Weather History Date:

Friday, October 7, 2011

  Actual Average (KRUG) Record (KRUG)
Temperature  
Mean Temperature 57 °F -  
Max Temperature 64 °F 59 °F 79 °F (1960)
Min Temperature 50 °F 34 °F 12 °F (1976)
Degree Days  
Heating Degree Days 8    
Growing Degree Days 7 (Base 50)    
Moisture  
Dew Point 48 °F    
Average Humidity 73    
Maximum Humidity 100    
Minimum Humidity 30    
Precipitation  
Precipitation 0.01 in - - ()
Sea Level Pressure  
Sea Level Pressure 29.45 in    
Wind  
Wind Speed 20 mph (South)    
Max Wind Speed 29 mph    
Max Gust Speed 46 mph    
Visibility 10 miles    
Events Rain    
Averages and records for this station are not official NWS values.
T = Trace of Precipitation, MM = Missing Value Source: NWS Daily Summary

Daily Weather History Graph

Daily Weather History Graph

Search for Another Location

Airport or City:

Trip Planner

Search our weather history database for the weather conditions in past years. The results will help you decide how hot, cold, wet, or windy it might be!

Date:

Astronomy

Oct. 07, 2011 Rise Set
Actual Time 7:46 AM CDT 7:05 PM CDT
Civil Twilight 7:14 AM CDT 7:36 PM CDT
Nautical Twilight 6:38 AM CDT 8:13 PM CDT
Astronomical Twilight 6:01 AM CDT 8:50 PM CDT
Moon 5:04 PM CDT (10/7) 3:17 AM CDT (10/7)
Length of Visible Light 12h 21m
Length of Day
11h 18m
Waxing Gibbous, 83% of the Moon is Illuminated
Oct 7
Waxing Gibbous
Oct 11
Full
Oct 19
Last Quarter
Oct 26
New
Nov 2
First Quarter

Hourly Weather History & Observations

Time (CDT) Temp. Dew Point Humidity Pressure Visibility Wind Dir Wind Speed Gust Speed Precip Events Conditions
12:15 AM 64.4 °F 46.4 °F 52% 29.62 in 10.0 mi SSE 20.7 mph 32.2 mph N/A   Overcast
12:35 AM 64.4 °F 48.2 °F 56% 29.64 in 10.0 mi South 27.6 mph 35.7 mph N/A   Overcast
12:55 AM 62.6 °F 50.0 °F 63% 29.62 in 10.0 mi SSE 18.4 mph 26.5 mph N/A   Overcast
1:15 AM 62.6 °F 48.2 °F 59% 29.59 in 10.0 mi SSE 16.1 mph 21.9 mph N/A   Overcast
1:35 AM 62.6 °F 50.0 °F 63% 29.56 in 10.0 mi SE 16.1 mph 25.3 mph N/A   Mostly Cloudy
1:55 AM 62.6 °F 50.0 °F 63% 29.53 in 10.0 mi SE 19.6 mph 29.9 mph N/A   Overcast
2:35 AM 62.6 °F 50.0 °F 63% 29.55 in 10.0 mi SSE 18.4 mph 27.6 mph N/A   Clear
2:55 AM 62.6 °F 50.0 °F 63% 29.55 in 10.0 mi SSE 24.2 mph 28.8 mph N/A   Clear
3:15 AM 62.6 °F 51.8 °F 68% 29.54 in 10.0 mi South 19.6 mph 27.6 mph N/A   Partly Cloudy
3:35 AM 60.8 °F 51.8 °F 72% 29.53 in 10.0 mi SSE 16.1 mph 24.2 mph N/A   Partly Cloudy
3:55 AM 60.8 °F 53.6 °F 77% 29.52 in 10.0 mi South 15.0 mph 21.9 mph N/A   Clear
4:15 AM 59.0 °F 53.6 °F 82% 29.51 in 10.0 mi SSE 16.1 mph 20.7 mph N/A   Mostly Cloudy
4:35 AM 59.0 °F 53.6 °F 82% 29.49 in 10.0 mi SSE 16.1 mph 21.9 mph N/A   Overcast
4:55 AM 59.0 °F 50.0 °F 72% 29.48 in 10.0 mi SSE 16.1 mph 21.9 mph N/A   Overcast
5:15 AM 59.0 °F 48.2 °F 67% 29.48 in 10.0 mi SSE 19.6 mph 26.5 mph N/A   Mostly Cloudy
5:35 AM 60.8 °F 48.2 °F 63% 29.47 in 10.0 mi SSE 19.6 mph 29.9 mph N/A   Partly Cloudy
5:55 AM 62.6 °F 48.2 °F 59% 29.47 in 10.0 mi SSE 21.9 mph 29.9 mph N/A   Clear
6:15 AM 62.6 °F 48.2 °F 59% 29.46 in 10.0 mi SSE 19.6 mph 32.2 mph N/A   Clear
6:35 AM 60.8 °F 50.0 °F 68% 29.46 in 10.0 mi SSE 21.9 mph 29.9 mph N/A   Clear
6:55 AM 60.8 °F 53.6 °F 77% 29.46 in 10.0 mi SSE 24.2 mph 33.4 mph N/A   Partly Cloudy
7:35 AM 59.0 °F 53.6 °F 82% 29.45 in 10.0 mi South 21.9 mph 31.1 mph N/A   Partly Cloudy
7:55 AM 59.0 °F 53.6 °F 82% 29.46 in 10.0 mi South 20.7 mph 29.9 mph N/A   Clear
8:15 AM 59.0 °F 55.4 °F 88% 29.46 in 10.0 mi South 16.1 mph 25.3 mph N/A   Clear
8:35 AM 59.0 °F 55.4 °F 88% 29.47 in 10.0 mi South 17.3 mph 24.2 mph N/A   Clear
8:55 AM 59.0 °F 55.4 °F 88% 29.47 in 10.0 mi South 17.3 mph 24.2 mph N/A   Partly Cloudy
9:15 AM 59.0 °F 55.4 °F 88% 29.47 in 10.0 mi South 19.6 mph 28.8 mph N/A   Mostly Cloudy
9:35 AM 59.0 °F 55.4 °F 88% 29.47 in 10.0 mi South 20.7 mph 27.6 mph N/A   Scattered Clouds
9:55 AM 60.8 °F 55.4 °F 82% 29.46 in 10.0 mi South 20.7 mph 26.5 mph N/A   Scattered Clouds
10:15 AM 59.0 °F 53.6 °F 82% 29.45 in 10.0 mi South 18.4 mph 31.1 mph N/A   Partly Cloudy
10:35 AM 59.0 °F 50.0 °F 72% 29.45 in 10.0 mi South 21.9 mph 28.8 mph N/A   Clear
10:55 AM 59.0 °F 46.4 °F 63% 29.45 in 10.0 mi South 18.4 mph 31.1 mph N/A   Clear
11:15 AM 60.8 °F 42.8 °F 52% 29.45 in 10.0 mi South 23.0 mph 34.5 mph N/A   Clear
11:35 AM 62.6 °F 46.4 °F 55% 29.45 in 10.0 mi SSW 20.7 mph 31.1 mph N/A   Partly Cloudy
11:55 AM 62.6 °F 42.8 °F 48% 29.44 in 10.0 mi South 25.3 mph 29.9 mph N/A   Partly Cloudy
12:35 PM 62.6 °F 41.0 °F 45% 29.41 in 10.0 mi South 25.3 mph 34.5 mph N/A   Clear
12:55 PM 64.4 °F 41.0 °F 42% 29.40 in 10.0 mi South 24.2 mph 35.7 mph N/A   Clear
1:15 PM 64.4 °F 39.2 °F 40% 29.39 in 10.0 mi South 28.8 mph 36.8 mph N/A   Clear
1:35 PM 64.4 °F 39.2 °F 40% 29.38 in 10.0 mi South 24.2 mph 34.5 mph N/A   Clear
1:55 PM 64.4 °F 41.0 °F 42% 29.37 in 10.0 mi South 27.6 mph 38.0 mph N/A   Partly Cloudy
2:15 PM 64.4 °F 32.0 °F 30% 29.35 in 10.0 mi South 24.2 mph 40.3 mph N/A   Partly Cloudy
2:35 PM 62.6 °F 32.0 °F 32% 29.35 in 10.0 mi South 25.3 mph 43.7 mph N/A   Mostly Cloudy
3:15 PM 60.8 °F 32.0 °F 34% 29.35 in 10.0 mi South 24.2 mph 42.6 mph N/A   Overcast
3:35 PM 60.8 °F 32.0 °F 34% 29.34 in 10.0 mi South 25.3 mph 33.4 mph N/A   Mostly Cloudy
4:15 PM 53.6 °F 44.6 °F 72% 29.37 in 8.0 mi SSW 24.2 mph 46.0 mph N/A Rain Light Rain
4:35 PM 50.0 °F 46.4 °F 87% 29.37 in 6.0 mi SW 16.1 mph 32.2 mph N/A   Haze
4:55 PM 50.0 °F 48.2 °F 94% 29.36 in 10.0 mi SW 15.0 mph 20.7 mph 0.01 in Rain Light Rain
5:15 PM 50.0 °F 48.2 °F 94% 29.36 in 5.0 mi SSW 11.5 mph - N/A   Mostly Cloudy
5:35 PM 50.0 °F 50.0 °F 100% 29.35 in 2.0 mi SSW 17.3 mph 24.2 mph N/A   Scattered Clouds
5:55 PM 50.0 °F 50.0 °F 100% 29.36 in 6.0 mi SSW 12.7 mph - N/A   Scattered Clouds
6:15 PM 50.0 °F 50.0 °F 100% 29.35 in 10.0 mi SSW 13.8 mph - N/A   Mostly Cloudy
6:35 PM 50.0 °F 50.0 °F 100% 29.36 in 10.0 mi SSW 13.8 mph 20.7 mph N/A   Mostly Cloudy
6:55 PM 50.0 °F 50.0 °F 100% 29.37 in 10.0 mi SSW 11.5 mph - N/A   Scattered Clouds
7:15 PM 50.0 °F 50.0 °F 100% 29.38 in 10.0 mi SW 12.7 mph - N/A   Clear
7:35 PM 50.0 °F 50.0 °F 100% 29.39 in 10.0 mi SW 12.7 mph - N/A   Clear
7:55 PM 50.0 °F 50.0 °F 100% 29.40 in 10.0 mi SW 17.3 mph 23.0 mph N/A   Clear
8:15 PM 50.0 °F 50.0 °F 100% 29.41 in 10.0 mi SW 19.6 mph 25.3 mph N/A   Clear
8:35 PM 50.0 °F 50.0 °F 100% 29.42 in 10.0 mi SW 18.4 mph 24.2 mph N/A   Clear
8:55 PM 50.0 °F 48.2 °F 94% 29.44 in 10.0 mi SW 17.3 mph 27.6 mph N/A   Scattered Clouds
9:15 PM 51.8 °F 50.0 °F 94% 29.45 in 10.0 mi SW 15.0 mph - N/A   Overcast
9:35 PM 53.6 °F 50.0 °F 88% 29.47 in 10.0 mi SW 17.3 mph 21.9 mph N/A   Overcast
9:55 PM 53.6 °F 50.0 °F 88% 29.48 in 10.0 mi SW 17.3 mph 25.3 mph N/A   Overcast
10:15 PM 53.6 °F 50.0 °F 88% 29.49 in 9.0 mi SW 20.7 mph 26.5 mph N/A   Mostly Cloudy
10:35 PM 51.8 °F 51.8 °F 100% 29.49 in 7.0 mi SW 9.2 mph - N/A   Mostly Cloudy
10:55 PM 53.6 °F 53.6 °F 100% 29.49 in 7.0 mi SW 18.4 mph 27.6 mph N/A   Mostly Cloudy
11:35 PM 53.6 °F 53.6 °F 100% 29.51 in 10.0 mi WSW 20.7 mph 27.6 mph N/A   Overcast
11:55 PM 51.8 °F 51.8 °F 100% 29.52 in 10.0 mi WSW 19.6 mph 24.2 mph N/A   Overcast